Portada
METAR-TAF:

METAR-TAF

Aeropuertos :

Aeropuerto de Tetuán-Sania Ramel

Tetuán, Marruecos

latitud: 35-35N, longitud: 005-20W, altitud: 10 m

Observación

El informe se hizo hace 1 hora y 10 minutos, a las 15:00 UTC
Viento 16 kt del oeste, variando entre suroeste y oeste-noroeste
Temperatura 18°C
Humedad 52%
Presión 1021 hPa
Visibilidad 10 km o más
Cielo nuboso a una altura de 3000 ft

METAR: GMTN 241500Z 27016KT 230V300 9999 BKN030 18/08 Q1021 NOSIG

Hora: 17:10 (16:10 UTC)


TAF: falta

Observaciones y pronósticos meteorológicos de más de 4000 aeropuertos (mensajes METAR y TAF).

Los puntos amarillos y rojos representan las estaciones disponibles.

Ponga el ratón en el punto deseado para ver el nombre de la estación.

Haga clic para ver las observaciones y los pronósticos meteorológicos.

Para cambiar el mapa : haga clic en los botones verdes con una cruz de color negro para hacer un zoom, en el botón verde con un guión para alejar o en las flechas verdes para mapas adyacentes.


METAR-TAF: